Meteo Giornale » Osservazioni meteo Italia » Venezia-Tessera

ore: 07:20 - Osservazioni Meteo Venezia-Tessera
Lat. 45° 30' N Lon. 12° 20' E Alt. 2 metri s.l.m.

sereno Europe/Rome

17 °C

Sereno

Temp. 24 Ore

17 °C

29 °C

Nord-Ovest

13 Km/h

Dew point 14 °C

Umidità 82 %

Visibilità  10 Km

Il sole sorge alle ore 06:16

Il sole tramonta alle ore 20:11

Data e Ora Cielo e Fenomeni T °C DP °C Um. % Pres. hPa Vis. km Vento km/h
Oggi h: 07:20 sereno Sereno 17 14 82 1016 10 NO 13
Oggi h: 06:50 sereno Sereno 17 14 82 1016 10 N/NO 14.8
Oggi h: 06:20 poco_nuvoloso Poco Nuvoloso 17 14 82 1015 10 NO 16.7
Oggi h: 05:50 nuvoloso Nuvoloso 18 13 72 1015 10 N 16.7
Oggi h: 05:20 molto_nuvoloso Molto Nuvoloso 19 12 63 1015 10 N/NE 18.5
Oggi h: 04:50 molto_nuvoloso Molto Nuvoloso 20 13 64 1015 10 NE 25.9
Oggi h: 04:20 nuvoloso Nuvoloso 19 13 68 1015 10 NE 22.2
Oggi h: 03:50 molto_nuvoloso Molto Nuvoloso 19 15 77 1014 10 NE 33.3
Oggi h: 01:50 coperto_pioggia Pioggia Debole 19 15 77 1014 10 NE 38.8
Oggi h: 01:20 coperto_pioggia Pioggia Debole 19 16 82 1014 10 NE 37
Oggi h: 00:50 molto_nuvoloso Molto Nuvoloso 18 16 88 1013 10 NE 46.3
Oggi h: 00:20 coperto_pioggia Pioggia Debole 18 17 93 1014 10 NE 35.2
Ieri h: 23:50 nuvoloso_temporali Temporale con Pioggia 18 16 88 1014 10 N 33.3
Ieri h: 23:20 nuvoloso_temporali Temporale con Pioggia 17 16 93 1014 10 N 31.5
Ieri h: 22:50 nuvoloso_piovaschi Rovescio di Pioggia 20 15 72 1012 9 O/NO 57.3
Ieri h: 22:20 nuvoloso Nuvoloso 25 19 69 1011 10 NE 18.5
Ieri h: 21:50 nuvoloso Nuvoloso 26 20 69 1011 10 E/NE 16.7
Ieri h: 21:20 nuvoloso Nuvoloso 26 18 61 1011 10 NE 14.8
Ieri h: 20:50 nuvoloso Nuvoloso 26 18 61 1011 10 NE 11.1
Ieri h: 20:20 nuvoloso Nuvoloso 27 18 57 1011 10 NE 13
Ieri h: 19:50 nuvoloso Nuvoloso 28 17 51 1011 10 NE 16.7
Ieri h: 19:20 nuvoloso Nuvoloso 28 17 51 1011 10 NE 20.3
Ieri h: 18:50 sereno Sereno 28 18 54 1011 10 NE 18.5
Ieri h: 18:20 sereno Sereno 29 18 51 1012 10 E/NE 16.7
Ieri h: 17:50 nuvoloso Nuvoloso 28 19 58 1012 10 NE 13
Ieri h: 17:20 nuvoloso Nuvoloso 28 19 58 1012 10 NE 14.8
Ieri h: 16:50 poco_nuvoloso Poco Nuvoloso 28 18 54 1011 10 NE 14.8
Ieri h: 16:20 sereno Sereno 28 18 54 1012 10 E/NE 14.8
Ieri h: 15:50 sereno Sereno 29 18 51 1012 10 E/NE 20.3
Ieri h: 15:20 sereno Sereno 28 18 54 1012 10 NE 20.3
Ieri h: 14:50 nuvoloso Nuvoloso 28 18 54 1012 10 NE 22.2
Ieri h: 14:20 nuvoloso Nuvoloso 29 19 54 1013 10 NE 25.9
Ieri h: 13:50 nuvoloso Nuvoloso 28 19 58 1013 10 NE 22.2
Ieri h: 13:20 nuvoloso Nuvoloso 28 21 65 1013 10 NE 20.3
Ieri h: 12:50 molto_nuvoloso Molto Nuvoloso 28 21 65 1013 10 NE 20.3
Ieri h: 12:20 nuvoloso Nuvoloso 28 20 61 1013 10 NE 24
Ieri h: 11:50 nuvoloso Nuvoloso 27 19 61 1012 10 N/NE 24
Ieri h: 11:20 nuvoloso Nuvoloso 26 19 65 1012 10 N 20.3
Ieri h: 10:50 coperto_pioggia Pioggia Debole 25 20 73 1013 10 N 22.2
Ieri h: 10:20 coperto_pioggia Pioggia Debole 26 20 69 1013 10 NO 16.7
Ieri h: 09:50 nuvoloso Nuvoloso 27 20 65 1012 10 N/NO 14.8
Ieri h: 09:20 sereno Sereno 25 20 73 1012 10 N/NE 14.8
Ieri h: 08:50 sereno Sereno 24 19 73 1012 10 N/NE 14.8
Ieri h: 08:20 sereno Sereno 24 19 73 1012 10 N/NE 16.7
Ieri h: 07:50 sereno Sereno 23 19 78 1012 10 N/NE 13